Retour au catalogue

STARLINK-11638

ActifCommunicationsVLEO
NORAD 63269·PAYLOAD·🇺🇸 United States

Lancé Mar 15, 2025 depuis Cape Canaveral Space Force Station

Loading…

Prochains Passages (prochaines 24 heures)

TLE

FraisSource: CelesTrak SupGP

Époque: Sep 15, 2026, 02:08 UTC

1 63269C 25053E   26258.08937500 -.00071610  00000+0 -55596-3 0  2583
2 63269  43.0012  50.3231 0001724 271.5887 320.9984 15.70883737    19

Suivez STARLINK-11638 en temps réel avec AllMySat

Download on the App Store